Weather History for Fountain Dale, PA

Change the Weather History Date:

Thursday, October 24, 2013

  Actual Average (KHGR) Record (KHGR)
Temperature  
Mean Temperature 48 °F -  
Max Temperature 51 °F 59 °F 82 °F (2001)
Min Temperature 44 °F 41 °F 32 °F (1997)
Degree Days  
Heating Degree Days 18    
Moisture  
Dew Point 28 °F    
Average Humidity 48    
Maximum Humidity 60    
Minimum Humidity 33    
Precipitation  
Precipitation 0.00 in - - ()
Sea Level Pressure  
Sea Level Pressure 30.00 in    
Wind  
Wind Speed 5 mph (SW)    
Max Wind Speed 9 mph    
Max Gust Speed 20 mph    
Visibility 10 miles    
Events      
Averages and records for this station are not official NWS values.
T = Trace of Precipitation, MM = Missing Value Source: NWS Daily Summary

Daily Weather History Graph

Daily Weather History Graph

Search for Another Location

Airport:

Trip Planner

Search our weather history database for the weather conditions in past years. The results will help you decide how hot, cold, wet, or windy it might be!

Date:

Astronomy

Oct. 24, 2013 Rise Set
Actual Time 7:29 AM EDT 6:17 PM EDT
Civil Twilight 7:02 AM EDT 6:44 PM EDT
Nautical Twilight 6:30 AM EDT 7:16 PM EDT
Astronomical Twilight 5:59 AM EDT 7:47 PM EDT
Moon 10:40 PM EDT (10/24) 12:28 PM EDT (10/24)
Length of Visible Light 11h 42m
Length of Day
10h 47m
Waning Gibbous, 71% of the Moon is Illuminated
Oct 24
Waning Gibbous
Oct 26
Last Quarter
Nov 3
New
Nov 10
First Quarter
Nov 17
Full

Hourly Weather History & Observations

Time (EDT) Temp. Windchill Dew Point Humidity Pressure Visibility Wind Dir Wind Speed Gust Speed Precip Events Conditions
12:53 AM 46.9 °F - 32.0 °F 56% 29.88 in 10.0 mi Variable 5.8 mph - N/A   Overcast
1:53 AM 46.0 °F 44.8 °F 32.0 °F 58% 29.90 in 10.0 mi SSW 3.5 mph - N/A   Scattered Clouds
2:53 AM 46.0 °F - 30.9 °F 56% 29.91 in 10.0 mi Calm Calm - N/A   Clear
3:53 AM 44.1 °F - 30.9 °F 60% 29.92 in 10.0 mi Calm Calm - N/A   Mostly Cloudy
4:53 AM 46.0 °F 42.5 °F 30.0 °F 54% 29.93 in 10.0 mi Variable 6.9 mph - N/A   Partly Cloudy
5:53 AM 46.0 °F 42.5 °F 30.0 °F 54% 29.94 in 10.0 mi SW 6.9 mph - N/A   Scattered Clouds
6:53 AM 46.0 °F 42.5 °F 30.9 °F 56% 29.96 in 10.0 mi WSW 6.9 mph - N/A   Mostly Cloudy
7:53 AM 45.0 °F 40.6 °F 30.9 °F 58% 29.98 in 10.0 mi SW 8.1 mph - N/A   Scattered Clouds
8:53 AM 45.0 °F 42.6 °F 30.9 °F 58% 29.99 in 10.0 mi Variable 4.6 mph - N/A   Clear
9:53 AM 46.9 °F - 28.9 °F 50% 30.00 in 10.0 mi Variable 5.8 mph - N/A   Partly Cloudy
10:53 AM 48.0 °F - 27.0 °F 44% 30.01 in 10.0 mi WSW 6.9 mph - N/A   Mostly Cloudy
11:53 AM 48.9 °F - 25.0 °F 39% 30.01 in 10.0 mi WSW 9.2 mph 19.6 mph N/A   Mostly Cloudy
12:53 PM 48.9 °F - 23.0 °F 36% 30.00 in 10.0 mi Variable 5.8 mph 18.4 mph N/A   Overcast
1:53 PM 48.0 °F - 27.0 °F 44% 30.00 in 10.0 mi SW 8.1 mph 16.1 mph N/A   Overcast
2:53 PM 48.9 °F - 24.1 °F 38% 30.00 in 10.0 mi Variable 4.6 mph - N/A   Mostly Cloudy
3:53 PM 51.1 °F - 25.0 °F 36% 30.00 in 10.0 mi West 6.9 mph - N/A   Overcast
4:53 PM 50.0 °F - 21.9 °F 33% 30.01 in 10.0 mi Variable 5.8 mph - N/A   Partly Cloudy
5:53 PM 48.0 °F - 25.0 °F 41% 30.02 in 10.0 mi Variable 5.8 mph - N/A   Partly Cloudy
6:53 PM 46.0 °F 43.9 °F 25.0 °F 44% 30.05 in 10.0 mi SSW 4.6 mph - N/A   Clear
7:53 PM 45.0 °F 41.8 °F 25.0 °F 46% 30.07 in 10.0 mi Variable 5.8 mph - N/A   Clear
8:53 PM 48.0 °F - 27.0 °F 44% 30.07 in 10.0 mi Variable 3.5 mph - N/A   Clear
9:53 PM 46.0 °F - 28.0 °F 50% 30.09 in 10.0 mi Calm Calm - N/A   Clear
10:53 PM 45.0 °F - 28.9 °F 53% 30.09 in 10.0 mi Calm Calm - N/A   Clear
11:53 PM 44.1 °F 40.8 °F 28.9 °F 55% 30.11 in 10.0 mi SSW 5.8 mph - N/A   Clear